Waterloo, IA

6:15 AM CDT on May 26, 2017 (GMT -0500)
Waterloo Municipal

Weather History for KALO - January, 2014

Change the Weather History Date:

Thursday, January 30, 2014

  Actual Average Record
Temperature  
Mean Temperature 18 °F 19 °F  
Max Temperature 33 °F 28 °F 55 °F (1924)
Min Temperature 3 °F 10 °F -24 °F (1951)
Degree Days  
Heating Degree Days 47 46  
Month to date heating degree days 1637 1400  
Since 1 July heating degree days 4791 4211  
Cooling Degree Days 0 0  
Month to date cooling degree days 0 0  
Year to date cooling degree days 0 0  
Moisture  
Dew Point 17 °F    
Average Humidity 73    
Maximum Humidity 92    
Minimum Humidity 53    
Precipitation  
Precipitation 0.06 in 0.03 in 1.00 in (1947)
Month to date precipitation 0.62 0.80  
Year to date precipitation 0.62 0.80  
Snow  
Snow 0.80 in 0.30 in 10.00 in (1947)
Month to date snowfall 6.5 7.9  
Since 1 July snowfall 31.3 21.2  
Snow Depth 2.00 in    
Sea Level Pressure  
Sea Level Pressure 29.68 in    
Wind  
Wind Speed 17 mph (WSW)    
Max Wind Speed 38 mph    
Max Gust Speed 43 mph    
Visibility 6 miles    
Events Fog , Snow    
T = Trace of Precipitation, MM = Missing Value Source: NWS Daily Summary

Daily Weather History Graph

Daily Weather History Graph

Search for Another Location

Airport or City:

Trip Planner

Search our weather history database for the weather conditions in past years. The results will help you decide how hot, cold, wet, or windy it might be!

Date:

Astronomy

Jan. 30, 2014 Rise Set
Actual Time 7:25 AM CST 5:20 PM CST
Civil Twilight 6:55 AM CST 5:50 PM CST
Nautical Twilight 6:21 AM CST 6:24 PM CST
Astronomical Twilight 5:48 AM CST 6:57 PM CST
Moon 6:51 AM CST (1/30) 5:34 PM CST (1/30)
Length of Visible Light 10h 55m
Length of Day
9h 55m
Waning Crescent, 0% of the Moon is Illuminated
Jan 30
Waning Crescent
Jan 30
New
Feb 6
First Quarter
Feb 14
Full
Feb 22
Last Quarter

Hourly Weather History & Observations

Time (CST) Temp. Windchill Dew Point Humidity Pressure Visibility Wind Dir Wind Speed Gust Speed Precip Events Conditions
12:54 AM 27.0 °F 14.7 °F 14.0 °F 58% 29.70 in 10.0 mi South 16.1 mph - N/A   Clear
1:54 AM 28.0 °F 17.0 °F 15.1 °F 58% 29.67 in 10.0 mi South 13.8 mph - N/A   Clear
2:54 AM 28.9 °F 18.6 °F 15.1 °F 56% 29.65 in 10.0 mi South 12.7 mph 24.2 mph N/A   Clear
3:54 AM 28.9 °F 17.7 °F 16.0 °F 58% 29.61 in 10.0 mi South 15.0 mph - N/A   Overcast
4:54 AM 28.9 °F 16.5 °F 16.0 °F 58% 29.58 in 10.0 mi South 18.4 mph 24.2 mph N/A   Overcast
5:54 AM 30.0 °F 16.9 °F 16.0 °F 56% 29.55 in 10.0 mi South 21.9 mph 31.1 mph N/A   Overcast
6:54 AM 30.0 °F 16.3 °F 16.0 °F 56% 29.47 in 10.0 mi South 24.2 mph 35.7 mph 0.00 in   Mostly Cloudy
7:54 AM 30.0 °F 17.9 °F 16.0 °F 56% 29.52 in 10.0 mi South 18.4 mph 32.2 mph N/A   Overcast
8:54 AM 30.9 °F 18.1 °F 16.0 °F 54% 29.55 in 10.0 mi SSW 21.9 mph 27.6 mph N/A   Overcast
9:06 AM 30.9 °F 19.4 °F 16.0 °F 54% 29.51 in 9.0 mi SSW 17.3 mph 27.6 mph N/A   Overcast
9:16 AM 30.0 °F 14.2 °F 19.9 °F 66% 29.53 in 1.8 mi SSW 33.4 mph 41.4 mph 0.00 in Snow Light Snow
9:30 AM 28.0 °F 13.6 °F 24.1 °F 85% 29.54 in 0.5 mi SW 24.2 mph 33.4 mph 0.00 in Fog , Snow Snow
9:34 AM 27.0 °F 13.9 °F 24.1 °F 89% 29.54 in 0.2 mi SW 18.4 mph 33.4 mph 0.00 in Fog , Snow Snow
9:44 AM 27.0 °F 13.9 °F 25.0 °F 92% 29.54 in 0.2 mi SW 18.4 mph 28.8 mph 0.01 in Fog , Snow Heavy Snow
9:54 AM 27.0 °F 14.7 °F 26.1 °F 96% 29.57 in 0.2 mi SSW 16.1 mph - 0.02 in Fog , Snow Snow
10:03 AM 28.0 °F 15.7 °F 26.1 °F 92% 29.53 in 0.5 mi SW 17.3 mph - 0.01 in Fog , Snow Snow
10:29 AM 28.0 °F 17.5 °F 26.1 °F 92% 29.53 in 0.5 mi SSW 12.7 mph - 0.03 in Fog , Snow Snow
10:54 AM 28.9 °F 19.2 °F 27.0 °F 92% 29.56 in 0.8 mi SSW 11.5 mph - 0.04 in Snow Light Snow
11:01 AM 28.9 °F 17.7 °F 27.0 °F 92% 29.53 in 1.2 mi SSW 15.0 mph - 0.00 in Snow Light Snow
11:12 AM 28.9 °F 17.7 °F 27.0 °F 92% 29.53 in 2.5 mi SSW 15.0 mph - 0.00 in Snow Light Snow
11:31 AM 30.0 °F 18.7 °F 27.0 °F 88% 29.53 in 1.5 mi SW 16.1 mph - 0.00 in Snow Light Snow
11:43 AM 30.0 °F 19.1 °F 27.0 °F 88% 29.53 in 2.5 mi SW 15.0 mph - 0.00 in Snow Light Snow
11:51 AM 30.2 °F 19.8 °F 26.6 °F 86% 29.52 in 3.0 mi SW 13.8 mph - 0.00 in Snow Light Snow
11:54 AM 30.0 °F 19.5 °F 27.0 °F 88% 29.55 in 4.0 mi SW 13.8 mph - 0.00 in Snow Light Snow
12:47 PM 32.0 °F 22.5 °F 26.1 °F 79% 29.53 in 10.0 mi WSW 12.7 mph - 0.00 in   Overcast
12:54 PM 33.1 °F 23.4 °F 26.1 °F 75% 29.56 in 10.0 mi West 13.8 mph - 0.00 in   Overcast
1:24 PM 28.0 °F 14.6 °F 23.0 °F 81% 29.56 in 2.5 mi WNW 20.7 mph 34.5 mph 0.00 in   Overcast
1:33 PM 27.0 °F 14.3 °F 21.9 °F 81% 29.57 in 3.0 mi WNW 17.3 mph 31.1 mph 0.00 in   Haze
1:54 PM 26.1 °F 11.3 °F 21.0 °F 81% 29.63 in 3.0 mi NW 23.0 mph 34.5 mph 0.00 in   Haze
2:18 PM 23.0 °F 5.7 °F 18.0 °F 81% 29.62 in 1.8 mi NNW 28.8 mph 36.8 mph 0.00 in   Overcast
2:23 PM 23.0 °F 8.0 °F 18.0 °F 81% 29.64 in 2.0 mi NW 20.7 mph 36.8 mph 0.00 in   Overcast
2:33 PM 23.0 °F 7.6 °F 18.0 °F 81% 29.65 in 4.0 mi NW 21.9 mph 31.1 mph 0.00 in   Overcast
2:54 PM 21.0 °F 4.6 °F 16.0 °F 81% 29.71 in 3.0 mi NNW 23.0 mph 32.2 mph 0.00 in   Overcast
3:20 PM 19.9 °F 4.8 °F 15.1 °F 81% 29.71 in 5.0 mi NW 18.4 mph 29.9 mph 0.00 in   Scattered Clouds
3:54 PM 19.9 °F 4.3 °F 14.0 °F 78% 29.78 in 7.0 mi NW 19.6 mph 27.6 mph 0.00 in   Partly Cloudy
4:43 PM 19.0 °F 2.7 °F 12.0 °F 74% 29.78 in 9.0 mi NNW 20.7 mph 28.8 mph 0.00 in   Mostly Cloudy
4:54 PM 18.0 °F 1.3 °F 10.9 °F 74% 29.82 in 7.0 mi NNW 20.7 mph 29.9 mph 0.00 in   Scattered Clouds
5:54 PM 16.0 °F 2.9 °F 9.0 °F 74% 29.87 in 10.0 mi NW 11.5 mph - N/A   Clear
6:54 PM 14.0 °F -0.8 °F 7.0 °F 74% 29.92 in 10.0 mi WNW 13.8 mph - N/A   Mostly Cloudy
7:06 PM 12.9 °F -1.6 °F 7.0 °F 77% 29.88 in 10.0 mi WNW 12.7 mph 21.9 mph N/A   Partly Cloudy
7:54 PM 10.9 °F -4.7 °F 3.9 °F 73% 29.98 in 10.0 mi WNW 13.8 mph - N/A   Clear
8:30 PM 9.0 °F -4.2 °F 3.0 °F 77% 29.97 in 10.0 mi WNW 9.2 mph - N/A   Partly Cloudy
8:54 PM 7.0 °F -9.8 °F 1.0 °F 77% 30.03 in 10.0 mi WNW 13.8 mph 23.0 mph N/A   Clear
9:54 PM 5.0 °F -13.0 °F -2.0 °F 73% 30.06 in 10.0 mi NW 15.0 mph - N/A   Clear
10:54 PM 3.9 °F -15.0 °F -2.9 °F 73% 30.08 in 10.0 mi NW 16.1 mph - N/A   Clear
11:54 PM 3.0 °F -16.7 °F -4.0 °F 73% 30.08 in 10.0 mi NW 17.3 mph - N/A   Clear